This is the latest recevied weather packets stored in our database for station/object W0SS-13. If no packets are shown the sender has not sent any weather packets the latest 10 day(s).
| Time | Temp. | Humidity | Pressure | Rain* | Wind** | Luminosity | Snow |
|---|---|---|---|---|---|---|---|
| 1778026962 | 11.11° C | 79% | 1013 hPa | 0 mm | - | 29 W/m² | - |
| 1778026658 | 11.11° C | 79% | 1013 hPa | 0 mm | - | 34 W/m² | - |
| 1778026356 | 11.11° C | 78% | 1012.9 hPa | 0 mm | - | 30 W/m² | - |
| 1778026052 | 11.11° C | 79% | 1012.6 hPa | 0 mm | - | 39 W/m² | - |
| 1778025750 | 11.11° C | 78% | 1012.5 hPa | 0 mm | - | 46 W/m² | - |
| 1778025447 | 11.11° C | 78% | 1012.6 hPa | 0 mm | - | 45 W/m² | - |
| 1778025145 | 11.11° C | 77% | 1012.7 hPa | 0 mm | - | 49 W/m² | - |
| 1778024841 | 11.67° C | 77% | 1012.7 hPa | 0 mm | - | 72 W/m² | - |
| 1778024539 | 11.67° C | 76% | 1012.8 hPa | 0 mm | - | 114 W/m² | - |
| 1778024235 | 11.67° C | 77% | 1012.7 hPa | 0 mm | - | 150 W/m² | - |
| 1778023933 | 11.67° C | 77% | 1012.3 hPa | 0 mm | - | 131 W/m² | - |
| 1778023630 | 11.67° C | 76% | 1012.6 hPa | 0 mm | - | 83 W/m² | - |
| 1778023327 | 11.67° C | 76% | 1012.7 hPa | 0 mm | - | 110 W/m² | - |
| 1778023024 | 11.67° C | 76% | 1012.6 hPa | 0 mm | - | 112 W/m² | - |
| 1778022723 | 11.11° C | 77% | 1012.7 hPa | 0 mm | - | 99 W/m² | - |
| 1778022421 | 11.11° C | 78% | 1012.9 hPa | 0 mm | - | 90 W/m² | - |
| 1778022117 | 11.11° C | 77% | 1012.8 hPa | 0 mm | - | 75 W/m² | - |
| 1778021813 | 11.11° C | 78% | 1013 hPa | 0 mm | - | 96 W/m² | - |
| 1778021510 | 11.11° C | 76% | 1012.8 hPa | 0 mm | - | 74 W/m² | - |
| 1778021206 | 11.67° C | 77% | 1013 hPa | 0 mm | - | 99 W/m² | - |
| 1778020904 | 11.67° C | 77% | 1012.6 hPa | 0 mm | - | 96 W/m² | - |
| 1778020601 | 11.67° C | 77% | 1012.8 hPa | 0 mm | - | 88 W/m² | - |
| 1778020297 | 11.11° C | 77% | 1012.7 hPa | 0 mm | - | 109 W/m² | - |
| 1778019993 | 11.11° C | 77% | 1012.5 hPa | 0 mm | - | 129 W/m² | - |
| 1778019690 | 11.11° C | 77% | 1012.8 hPa | 0 mm | - | 109 W/m² | - |
* Rain latest hour (hover to see other rain measurements)
** Current wind speed in m/s (hover to see current wind gust speed)